WA7ZVY-4 Weather Reports


Display with metric or nautical units.
time (UTC)temp
F
wind
direction
speed
MPH
gust
MPH
rain 1hr
in
rain 24hr
in
rain mn
in
humidity
%
barometer
mb
20260904181855 61 128 5.0 10.0 0.00 0.99 0.98 94 1010.5
20260904181547 61 106 5.0 10.0 0.00 0.99 0.98 94 1010.5
20260904181347 61 0 0.0 10.0 0.00 0.99 0.98 94 1010.5
20260904181030 61 121 7.0 10.0 0.00 0.99 0.98 95 1010.4
20260904180840 61 0 0.0 10.0 0.00 0.99 0.98 95 1010.4
20260904180513 61 131 7.0 10.0 0.00 1.02 0.98 95 1010.5
20260904180333 61 131 7.0 10.0 0.00 1.02 0.98 95 1010.5
20260904175956 62 121 9.0 9.0 0.00 1.02 0.98 96 1010.5
20260904175439 61 121 5.0 9.0 0.00 1.02 0.98 96 1010.5
20260904175319 61 102 5.0 9.0 0.00 1.02 0.98 97 1010.5
20260904174922 61 85 4.0 9.0 0.00 1.02 0.98 97 1010.5
20260904174812 61 0 0.0 9.0 0.00 1.02 0.98 97 1010.5
20260904174405 61 71 4.0 9.0 0.00 1.02 0.98 98 1010.4
20260904174305 61 92 6.0 9.0 0.00 1.02 0.98 98 1010.4
20260904173848 61 113 2.0 12.0 0.00 1.02 0.98 98 1010.3
20260904173758 60 107 7.0 12.0 0.00 1.02 0.98 99 1010.4
20260904173331 60 105 6.0 12.0 0.00 1.02 0.98 99 1010.3
20260904173251 60 120 7.0 12.0 0.00 1.02 0.98 99 1010.3
20260904172814 60 0 0.0 12.0 0.00 1.02 0.98 100 1010.3
20260904172744 60 103 7.0 12.0 0.00 1.02 0.98 100 1010.3
20260904172257 60 112 9.0 12.0 0.00 1.02 0.98 100 1010.2
20260904172237 60 112 10.0 12.0 0.00 1.02 0.98 100 1010.2
20260904171740 59 119 9.0 11.0 0.00 1.02 0.98 100 1010.2
20260904171730 59 119 9.0 11.0 0.00 1.02 0.98 100 1010.2
20260904171223 59 93 6.0 11.0 0.00 1.02 0.98 100 1010.0
20260904170716 59 109 7.0 11.0 0.00 1.05 0.98 100 1009.9
20260904170706 59 109 6.0 11.0 0.00 1.05 0.98 100 1009.9
20260904170209 59 112 5.0 11.0 0.00 1.05 0.98 100 1009.9
20260904170149 59 112 5.0 11.0 0.00 1.05 0.98 100 1009.9
20260904165702 59 126 8.0 11.0 0.00 1.05 0.98 100 1009.9
20260904165632 59 126 9.0 11.0 0.00 1.05 0.98 100 1009.9
20260904164648 59 78 6.0 12.0 0.00 1.05 0.98 100 1009.7
20260904164558 58 78 4.0 12.0 0.00 1.05 0.98 100 1009.7
20260904164141 58 165 4.0 12.0 0.00 1.05 0.98 100 1009.8
20260904164041 58 165 4.0 12.0 0.00 1.05 0.98 100 1009.7
20260904163634 58 110 4.0 12.0 0.00 1.05 0.98 100 1009.7
20260904163127 58 107 7.0 10.0 0.00 1.05 0.98 100 1009.7
20260904163007 58 79 6.0 8.0 0.00 1.05 0.98 100 1009.7
20260904162620 58 64 6.0 8.0 0.00 1.05 0.98 100 1009.8
20260904162450 58 64 3.0 8.0 0.00 1.05 0.98 100 1009.8
20260904162113 57 54 4.0 8.0 0.00 1.05 0.98 100 1009.8
20260904161933 57 54 5.0 8.0 0.00 1.05 0.98 100 1009.8
20260904161606 57 117 3.0 7.0 0.00 1.05 0.98 100 1009.8
20260904161417 57 79 1.0 7.0 0.00 1.05 0.98 100 1009.8
20260904161059 56 65 4.0 7.0 0.00 1.05 0.98 100 1009.8
20260904160859 56 58 3.0 7.0 0.00 1.05 0.98 100 1009.8
20260904160552 56 117 7.0 9.0 0.01 1.05 0.98 100 1009.8
20260904160342 56 117 5.0 9.0 0.01 1.05 0.98 100 1009.7
20260904160045 56 91 3.0 9.0 0.01 1.05 0.98 100 1009.9
20260904155825 56 113 4.0 9.0 0.01 1.05 0.98 100 1009.8
20260904155538 56 113 7.0 9.0 0.02 1.05 0.98 100 1009.8
20260904155308 56 81 4.0 9.0 0.02 1.05 0.98 100 1009.8
20260904155031 56 91 5.0 9.0 0.02 1.05 0.98 100 1009.8
20260904154751 56 51 6.0 9.0 0.03 1.05 0.98 100 1009.8
20260904154524 56 77 5.0 8.0 0.03 1.05 0.98 100 1009.8
20260904154234 56 70 4.0 8.0 0.03 1.05 0.98 100 1009.7
20260904154017 56 70 6.0 9.0 0.03 1.05 0.98 100 1009.7
20260904153717 55 78 6.0 9.0 0.04 1.05 0.98 100 1009.7
20260904153510 55 78 4.0 9.0 0.04 1.05 0.98 100 1009.7
20260904153200 55 88 3.0 9.0 0.04 1.05 0.98 100 1009.6
20260904153003 55 68 2.0 9.0 0.04 1.05 0.98 100 1009.6
20260904151949 55 72 5.0 9.0 0.06 1.05 0.98 100 1009.5
20260904151609 55 58 4.0 9.0 0.07 1.05 0.98 100 1009.4
20260904151442 54 58 5.0 9.0 0.07 1.05 0.98 100 1009.4
20260904151051 54 126 7.0 8.0 0.07 1.05 0.98 100 1009.4
20260904150935 54 126 5.0 8.0 0.07 1.05 0.98 100 1009.3
20260904150535 54 89 8.0 11.0 0.07 0.98 0.98 100 1009.2
20260904150428 54 93 6.0 11.0 0.07 0.98 0.98 100 1009.2
20260904145921 54 119 5.0 11.0 0.07 0.98 0.97 100 1009.1
20260904145501 54 84 5.0 11.0 0.07 0.98 0.97 100 1009.1
20260904144944 54 60 5.0 11.0 0.07 0.98 0.96 100 1009.1
20260904144907 54 74 6.0 10.0 0.07 0.98 0.96 100 1009.1
20260904144427 54 72 4.0 9.0 0.07 0.98 0.96 100 1009.1
20260904144400 54 72 5.0 9.0 0.07 0.98 0.96 100 1009.1
20260904143910 54 85 4.0 11.0 0.07 0.98 0.95 100 1009.1
20260904143853 54 85 3.0 11.0 0.07 0.98 0.95 100 1009.1
20260904143346 54 74 3.0 11.0 0.07 0.98 0.95 100 1009.0
20260904142835 54 63 3.0 11.0 0.07 0.98 0.94 100 1008.9
20260904142332 54 70 4.0 11.0 0.06 0.98 0.93 100 1008.9
20260904142319 54 70 5.0 11.0 0.06 0.98 0.93 100 1008.9
20260904141825 54 78 7.0 10.0 0.06 0.98 0.92 100 1008.7
20260904141801 54 68 7.0 10.0 0.06 0.98 0.92 100 1008.7
20260904141317 54 0 0.0 6.0 0.06 0.98 0.91 100 1008.6
20260904141244 54 99 5.0 6.0 0.06 0.98 0.91 100 1008.6
20260904140811 54 63 4.0 9.0 0.07 0.92 0.91 100 1008.4
20260904140729 54 63 2.0 9.0 0.07 0.92 0.91 100 1008.4
20260904140210 54 91 4.0 9.0 0.07 0.92 0.90 100 1008.4
20260904135756 53 77 4.0 9.0 0.10 0.92 0.90 100 1008.2
20260904135656 54 77 4.0 9.0 0.10 0.92 0.90 100 1008.2
20260904135251 53 63 7.0 9.0 0.10 0.92 0.89 100 1008.1
20260904135136 53 63 7.0 9.0 0.10 0.92 0.89 100 1008.1
20260904134743 53 78 6.0 9.0 0.12 0.92 0.89 100 1008.1
20260904134619 54 113 5.0 9.0 0.12 0.92 0.89 100 1008.0
20260904134235 53 67 4.0 9.0 0.12 0.92 0.89 100 1008.0
20260904134102 53 67 4.0 9.0 0.12 0.92 0.89 100 1008.0
20260904133728 54 49 6.0 9.0 0.17 0.92 0.88 100 1007.9
20260904133545 54 95 5.0 9.0 0.17 0.92 0.88 100 1007.9
20260904133222 54 127 5.0 9.0 0.17 0.92 0.88 100 1007.9
20260904133028 54 117 7.0 9.0 0.17 0.92 0.88 100 1007.8
20260904132511 53 106 3.0 9.0 0.18 0.92 0.87 100 1007.8
20260904132207 53 81 7.0 9.0 0.18 0.92 0.87 100 1007.7
20260904131954 53 98 4.0 9.0 0.18 0.92 0.86 100 1007.7
20260904131701 53 67 6.0 9.0 0.17 0.92 0.86 100 1007.6
20260904131438 53 70 4.0 9.0 0.17 0.92 0.86 100 1007.6
20260904131153 53 78 4.0 9.0 0.17 0.92 0.85 100 1007.6
20260904130920 53 78 6.0 9.0 0.17 0.92 0.85 100 1007.5
20260904130647 53 57 4.0 9.0 0.15 0.84 0.85 100 1007.5
20260904130403 53 98 4.0 6.0 0.15 0.84 0.84 100 1007.5
20260904130139 53 82 5.0 12.0 0.15 0.83 0.84 100 1007.4
20260904125846 54 82 7.0 12.0 0.15 0.83 0.83 100 1007.4
20260904125633 54 60 5.0 12.0 0.11 0.82 0.82 100 1007.4
20260904125329 54 60 1.0 12.0 0.11 0.81 0.81 100 1007.4
20260904124813 54 0 3.0 12.0 0.11 0.79 0.79 100 1007.4
20260904124255 54 70 4.0 11.0 0.10 0.77 0.77 100 1007.3
20260904124111 54 70 7.0 11.0 0.10 0.77 0.77 100 1007.3
20260904123738 54 91 8.0 11.0 0.04 0.76 0.75 100 1007.3
20260904123605 54 91 8.0 11.0 0.04 0.76 0.74 100 1007.4
20260904123221 54 149 7.0 11.0 0.04 0.76 0.72 100 1007.4
20260904123057 54 149 5.0 11.0 0.04 0.76 0.70 100 1007.4
20260904122704 54 85 6.0 11.0 0.02 0.76 0.70 100 1007.2
20260904122550 54 85 6.0 11.0 0.02 0.76 0.69 100 1007.2
20260904122147 54 68 9.0 11.0 0.02 0.76 0.68 100 1007.1
20260904122043 54 68 5.0 11.0 0.02 0.76 0.68 100 1007.1
20260904121630 54 112 8.0 9.0 0.02 0.76 0.68 100 1007.2
20260904121536 54 112 4.0 15.0 0.02 0.76 0.68 100 1007.2
20260904121029 54 84 5.0 15.0 0.02 0.76 0.68 100 1007.2
20260904120556 54 100 7.0 15.0 0.03 0.76 0.68 100 1007.2
20260904120522 54 100 5.0 15.0 0.03 0.76 0.68 100 1007.2
20260904120039 54 67 10.0 15.0 0.03 0.76 0.68 100 1007.1
20260904120015 54 67 10.0 15.0 0.03 0.76 0.68 100 1007.1
20260904115523 54 64 8.0 13.0 0.04 0.76 0.68 100 1007.1
20260904115508 54 64 6.0 13.0 0.04 0.76 0.68 100 1007.1
20260904115002 54 75 6.0 12.0 0.04 0.76 0.68 100 1007.1
20260904114448 54 84 6.0 10.0 0.02 0.76 0.66 100 1007.1
20260904113947 54 57 6.0 8.0 0.02 0.76 0.66 100 1007.0
20260904113931 54 57 4.0 8.0 0.02 0.76 0.66 100 1007.0
20260904113440 54 51 7.0 12.0 0.02 0.76 0.66 100 1006.9
20260904113414 54 51 8.0 12.0 0.02 0.76 0.66 100 1006.9
20260904113025 54 58 7.0 12.0 0.02 0.76 0.66 100 1006.9
20260904112933 54 58 7.0 12.0 0.02 0.76 0.66 100 1006.9
20260904112857 54 79 6.0 12.0 0.02 0.76 0.66 100 1006.9
20260904112426 54 57 7.0 12.0 0.02 0.76 0.66 100 1007.0
20260904111919 54 68 3.0 12.0 0.02 0.76 0.66 100 1007.0
20260904111412 54 60 5.0 12.0 0.02 0.76 0.66 100 1007.0
20260904111307 54 54 12.0 12.0 0.02 0.76 0.66 100 1007.0
20260904110905 54 84 5.0 10.0 0.02 0.76 0.66 100 1007.1
20260904110234 54 85 7.0 10.0 0.01 0.80 0.65 100 1007.1
20260904105715 54 84 6.0 10.0 0.00 0.80 0.64 100 1007.1
20260904105344 54 78 6.0 10.0 0.00 0.80 0.64 100 1007.0
20260904105159 54 78 6.0 10.0 0.00 0.80 0.64 100 1007.0
20260904104837 54 103 4.0 9.0 0.00 0.80 0.64 100 1007.0
20260904104641 53 81 2.0 9.0 0.00 0.80 0.64 100 1007.0
20260904104332 53 81 1.0 9.0 0.00 0.80 0.64 100 1006.9
20260904104124 53 100 8.0 12.0 0.00 0.80 0.64 100 1006.9
20260904103823 53 77 3.0 12.0 0.00 0.80 0.64 100 1006.9
20260904103607 53 61 4.0 12.0 0.00 0.80 0.64 100 1006.8
20260904103316 53 112 4.0 12.0 0.00 0.80 0.64 100 1006.9
20260904103050 53 120 8.0 12.0 0.00 0.80 0.64 100 1006.8
20260904102809 53 0 4.0 12.0 0.00 0.80 0.64 100 1006.8
20260904102533 53 109 6.0 12.0 0.00 0.80 0.64 100 1006.8
20260904102306 54 114 7.0 10.0 0.00 0.80 0.64 100 1006.8
20260904102016 54 93 6.0 10.0 0.00 0.80 0.64 100 1006.9
20260904101755 54 85 7.0 10.0 0.00 0.80 0.64 100 1006.9
20260904101500 54 103 5.0 10.0 0.00 0.80 0.64 100 1006.9
20260904101248 54 91 6.0 10.0 0.00 0.80 0.64 100 1006.9
20260904100943 54 103 4.0 10.0 0.00 0.80 0.64 100 1006.8
20260904100741 54 106 5.0 10.0 0.00 0.80 0.64 100 1006.8
20260904100425 54 102 2.0 10.0 0.00 0.80 0.64 100 1006.8
20260904100234 54 81 5.0 10.0 0.00 0.80 0.64 100 1006.9
20260904095908 54 81 9.0 10.0 0.00 0.80 0.64 100 1006.9
20260904095729 54 107 3.0 10.0 0.00 0.80 0.64 100 1006.8
20260904095351 54 0 0.0 10.0 0.00 0.80 0.64 100 1006.8
20260904095220 54 98 6.0 10.0 0.00 0.80 0.64 100 1006.9
20260904094834 54 96 2.0 10.0 0.00 0.80 0.64 100 1006.9
20260904094713 54 99 5.0 10.0 0.00 0.80 0.64 100 1006.9
20260904094317 54 0 0.0 9.0 0.00 0.80 0.64 100 1006.9
20260904094206 54 79 3.0 9.0 0.00 0.80 0.64 100 1007.0
20260904093800 54 103 6.0 9.0 0.00 0.80 0.64 100 1007.0
20260904093659 54 103 4.0 9.0 0.00 0.80 0.64 100 1007.0
20260904093243 54 71 6.0 9.0 0.00 0.80 0.64 100 1007.0
20260904093152 54 71 4.0 11.0 0.00 0.80 0.64 100 1007.0
20260904092726 54 105 7.0 11.0 0.00 0.80 0.64 100 1006.9
20260904092209 54 65 6.0 11.0 0.00 0.80 0.64 100 1006.9
20260904092138 54 65 7.0 11.0 0.00 0.80 0.64 100 1006.9
20260904091652 54 103 5.0 11.0 0.01 0.80 0.64 100 1006.9
20260904091631 54 103 7.0 11.0 0.01 0.80 0.64 100 1006.9
20260904091135 54 109 4.0 9.0 0.01 0.80 0.64 100 1006.8
20260904091124 54 109 6.0 9.0 0.01 0.80 0.64 100 1006.8
20260904090617 54 107 4.0 9.0 0.03 0.79 0.64 100 1006.8
20260904090110 54 121 6.0 9.0 0.03 0.79 0.64 100 1006.8
20260904085603 54 128 6.0 13.0 0.08 0.79 0.64 100 1006.7
20260904085544 54 128 7.0 13.0 0.08 0.79 0.64 100 1006.7
20260904085056 54 63 7.0 13.0 0.08 0.79 0.64 100 1006.7
20260904085027 54 63 7.0 13.0 0.08 0.79 0.64 100 1006.7
20260904084549 54 102 4.0 13.0 0.12 0.79 0.64 100 1006.6
20260904084510 54 102 6.0 13.0 0.12 0.79 0.64 100 1006.7
20260904083535 54 121 6.0 10.0 0.15 0.79 0.64 100 1006.7
20260904083437 54 121 6.0 10.0 0.15 0.79 0.64 100 1006.7
20260904083028 54 113 4.0 10.0 0.15 0.79 0.64 100 1006.7
20260904082919 54 105 2.0 10.0 0.15 0.79 0.64 100 1006.7
20260904082521 54 82 5.0 10.0 0.19 0.79 0.64 100 1006.7
20260904082402 54 86 6.0 9.0 0.19 0.79 0.64 100 1006.7
20260904082014 54 100 5.0 8.0 0.19 0.79 0.64 100 1006.6
20260904081845 54 102 6.0 10.0 0.19 0.79 0.64 100 1006.6
20260904081507 54 63 3.0 10.0 0.19 0.79 0.63 100 1006.6
20260904081333 54 77 5.0 10.0 0.19 0.79 0.63 100 1006.7
20260904081000 54 98 4.0 10.0 0.19 0.79 0.63 100 1006.7
20260904080811 54 0 0.0 10.0 0.19 0.79 0.63 100 1006.7
20260904080453 54 57 4.0 10.0 0.19 0.62 0.62 100 1006.7
20260904080254 54 78 5.0 10.0 0.19 0.62 0.62 100 1006.7
20260904075737 54 85 7.0 13.0 0.15 0.61 0.61 100 1006.6
20260904075439 54 91 6.0 13.0 0.15 0.60 0.60 100 1006.6
20260904075220 54 63 6.0 13.0 0.15 0.60 0.59 100 1006.6
20260904074932 54 123 5.0 13.0 0.15 0.60 0.57 100 1006.5
20260904074703 54 86 4.0 13.0 0.14 0.60 0.56 100 1006.5
20260904074425 54 86 6.0 13.0 0.14 0.60 0.56 100 1006.5
20260904074146 54 109 8.0 14.0 0.14 0.60 0.55 100 1006.5
20260904073918 54 109 8.0 14.0 0.14 0.60 0.53 100 1006.6
20260904073629 54 135 9.0 14.0 0.16 0.60 0.52 100 1006.5
20260904073411 54 105 10.0 14.0 0.16 0.60 0.51 100 1006.4
20260904072904 54 112 7.0 14.0 0.16 0.60 0.49 100 1006.4
20260904072555 54 60 10.0 14.0 0.14 0.60 0.48 100 1006.3
20260904072357 54 89 8.0 13.0 0.14 0.60 0.48 100 1006.3
20260904072038 54 112 7.0 13.0 0.14 0.60 0.46 100 1006.3
20260904071850 54 112 9.0 13.0 0.14 0.60 0.46 100 1006.3
20260904071521 54 117 8.0 13.0 0.16 0.60 0.45 100 1006.3
20260904071343 54 85 7.0 13.0 0.16 0.60 0.44 100 1006.4
20260904071004 54 60 7.0 11.0 0.16 0.60 0.44 100 1006.2
20260904070836 54 117 3.0 11.0 0.16 0.60 0.44 100 1006.3
20260904070447 54 109 9.0 11.0 0.14 0.44 0.43 100 1006.3
20260904070329 54 133 8.0 11.0 0.14 0.44 0.43 100 1006.2
20260904065930 54 96 5.0 10.0 0.14 0.44 0.42 100 1006.1
20260904065822 54 124 3.0 10.0 0.14 0.44 0.42 100 1006.2
20260904065413 54 133 6.0 10.0 0.13 0.44 0.42 100 1006.1
20260904065315 54 98 3.0 10.0 0.13 0.44 0.42 100 1006.1
20260904064856 54 0 0.0 4.0 0.13 0.44 0.41 100 1006.2
20260904064808 54 40 4.0 4.0 0.10 0.44 0.41 100 1006.1
20260904064341 54 79 2.0 10.0 0.10 0.44 0.40 100 1006.0
20260904064301 54 82 4.0 10.0 0.10 0.44 0.40 100 1006.0
20260904063822 54 110 1.0 10.0 0.10 0.44 0.38 100 1006.1
20260904063754 54 88 3.0 10.0 0.05 0.44 0.38 100 1006.1
20260904063305 54 0 0.0 10.0 0.05 0.44 0.36 100 1006.2
20260904063247 54 106 1.0 10.0 0.05 0.44 0.36 100 1006.2
20260904062740 54 141 5.0 10.0 0.03 0.44 0.33 100 1006.2
20260904062233 54 58 6.0 8.0 0.03 0.44 0.32 100 1006.1
20260904061726 54 105 6.0 13.0 0.00 0.44 0.31 100 1006.1
20260904061714 54 105 5.0 13.0 0.00 0.44 0.31 100 1006.1
20260904061219 55 116 4.0 13.0 0.00 0.44 0.28 100 1006.1
20260904061157 55 116 7.0 13.0 0.00 0.44 0.28 100 1006.1
20260904060712 55 98 7.0 13.0 0.00 0.44 0.28 100 1006.1
20260904060640 55 98 6.0 13.0 0.00 0.44 0.28 100 1006.1
20260904060205 55 106 6.0 12.0 0.00 0.44 0.28 100 1006.1
20260904060123 55 106 9.0 12.0 0.00 0.44 0.28 100 1006.1
20260904055658 55 89 1.0 9.0 0.00 0.44 0.28 100 1006.2
20260904055606 55 89 3.0 9.0 0.00 0.44 0.28 100 1006.2
20260904055151 55 110 6.0 9.0 0.00 0.44 0.28 100 1006.2
20260904055049 55 110 7.0 9.0 0.00 0.44 0.28 100 1006.2
20260904054138 55 96 6.0 9.0 0.01 0.44 0.28 100 1006.3
20260904054015 55 96 6.0 9.0 0.01 0.44 0.28 100 1006.4
20260904053630 55 138 6.0 8.0 0.01 0.44 0.28 100 1006.4
20260904053123 55 109 4.0 8.0 0.01 0.44 0.28 100 1006.4
20260904052941 55 92 6.0 8.0 0.01 0.44 0.28 100 1006.5
20260904052616 55 116 5.0 8.0 0.01 0.44 0.28 100 1006.5
20260904052424 55 88 1.0 8.0 0.01 0.44 0.28 100 1006.5
20260904052109 55 96 3.0 8.0 0.01 0.44 0.28 100 1006.5
20260904051907 55 96 3.0 8.0 0.01 0.44 0.28 100 1006.5
20260904051602 55 121 7.0 8.0 0.01 0.44 0.28 100 1006.5
20260904051350 55 121 6.0 8.0 0.01 0.44 0.28 100 1006.5
20260904051055 55 65 2.0 8.0 0.01 0.44 0.28 100 1006.6
20260904050833 55 57 4.0 8.0 0.01 0.44 0.28 100 1006.6
20260904050316 55 0 0.0 8.0 0.01 0.43 0.28 100 1006.7
20260904045759 55 98 1.0 7.0 0.01 0.43 0.28 100 1006.6
20260904045534 55 98 1.0 7.0 0.01 0.43 0.28 100 1006.6
20260904045242 55 0 0.0 7.0 0.01 0.43 0.28 100 1006.7
20260904045027 55 0 0.0 7.0 0.01 0.43 0.28 100 1006.7
20260904044725 55 99 2.0 7.0 0.00 0.43 0.28 100 1006.6
20260904044520 55 126 1.0 7.0 0.00 0.43 0.28 100 1006.7
20260904044208 55 116 6.0 7.0 0.00 0.43 0.28 100 1006.7
20260904044013 55 96 3.0 6.0 0.00 0.43 0.28 100 1006.7
20260904043651 55 0 0.0 6.0 0.00 0.43 0.27 100 1006.7
20260904043506 55 0 0.0 6.0 0.00 0.43 0.27 100 1006.7
20260904043134 55 49 5.0 6.0 0.00 0.43 0.27 100 1006.8
20260904042959 55 49 3.0 6.0 0.00 0.43 0.27 100 1006.8
20260904042617 55 103 4.0 6.0 0.01 0.43 0.27 100 1006.8
20260904042100 56 0 0.0 5.0 0.01 0.43 0.27 100 1006.8
20260904041945 56 0 0.0 5.0 0.01 0.43 0.27 100 1006.8
20260904041543 56 86 4.0 5.0 0.01 0.43 0.27 100 1006.8
20260904041438 56 86 2.0 9.0 0.01 0.43 0.27 100 1006.8
20260904041026 56 0 0.0 9.0 0.01 0.43 0.27 100 1007.0
20260904040931 56 0 0.0 9.0 0.01 0.43 0.27 100 1007.0
20260904040510 56 0 0.0 9.0 0.01 0.47 0.27 100 1006.9
20260904040424 56 0 0.0 9.0 0.01 0.47 0.27 100 1006.9
20260904035952 56 0 0.0 9.0 0.01 0.47 0.27 100 1007.0
20260904035917 56 0 0.0 9.0 0.01 0.47 0.27 100 1006.9
20260904035435 56 0 0.0 6.0 0.01 0.47 0.27 100 1006.8
20260904035410 56 0 0.0 6.0 0.01 0.47 0.27 100 1006.8
20260904034918 56 0 0.0 6.0 0.01 0.47 0.27 100 1006.8
20260904034903 56 0 0.0 6.0 0.01 0.47 0.27 100 1006.8
20260904034356 56 0 0.0 6.0 0.04 0.47 0.27 100 1006.7
20260904033849 56 84 4.0 11.0 0.04 0.47 0.27 100 1006.6
20260904033844 56 0 0.0 11.0 0.04 0.47 0.27 100 1006.6
20260904033342 56 166 6.0 11.0 0.04 0.47 0.27 100 1006.7
20260904033327 56 166 8.0 11.0 0.04 0.47 0.27 100 1006.6
20260904032835 56 0 0.0 11.0 0.04 0.47 0.27 100 1006.6
20260904032810 56 0 0.0 11.0 0.04 0.47 0.27 100 1006.6
20260904032328 56 0 0.0 11.0 0.09 0.47 0.26 100 1006.6
20260904032253 56 173 5.0 11.0 0.09 0.47 0.26 100 1006.6
20260904031822 56 207 7.0 9.0 0.09 0.47 0.26 100 1006.5
20260904031736 56 218 4.0 9.0 0.12 0.47 0.26 100 1006.5
20260904031314 56 0 0.0 9.0 0.12 0.47 0.26 100 1006.5
20260904031219 56 175 4.0 9.0 0.12 0.47 0.26 100 1006.6
20260904030807 56 0 6.0 7.0 0.12 0.47 0.26 100 1006.6
20260904030702 56 189 2.0 4.0 0.13 0.43 0.26 100 1006.6
20260904030300 56 158 2.0 4.0 0.13 0.43 0.26 100 1006.5
20260904030145 56 158 2.0 4.0 0.13 0.43 0.26 100 1006.6
20260904025753 56 170 4.0 9.0 0.20 0.43 0.26 99 1006.6
20260904025628 56 170 4.0 9.0 0.20 0.43 0.26 99 1006.5
20260904025246 56 161 3.0 9.0 0.20 0.43 0.26 99 1006.6
20260904024739 56 193 3.0 9.0 0.20 0.43 0.26 99 1006.5
20260904024554 56 193 3.0 9.0 0.20 0.43 0.26 99 1006.5
20260904024037 56 0 0.0 7.0 0.20 0.43 0.24 99 1006.6
20260904023725 56 100 3.0 7.0 0.21 0.43 0.23 99 1006.6
20260904023520 56 100 3.0 7.0 0.21 0.43 0.23 99 1006.4
20260904023218 56 106 3.0 6.0 0.21 0.43 0.23 98 1006.3
20260904023003 56 106 3.0 6.0 0.21 0.43 0.23 98 1006.4
20260904022711 56 0 0.0 10.0 0.16 0.43 0.23 98 1006.3
20260904022446 56 0 0.0 10.0 0.16 0.43 0.23 98 1006.4
20260904022204 56 173 4.0 10.0 0.16 0.43 0.22 98 1006.4
20260904021929 56 173 8.0 10.0 0.16 0.43 0.21 97 1006.7
20260904021657 56 190 6.0 10.0 0.14 0.43 0.15 97 1006.7
20260904021412 56 218 4.0 10.0 0.14 0.43 0.15 97 1006.5
20260904021150 56 184 6.0 10.0 0.14 0.43 0.14 97 1006.6
20260904020643 56 198 6.0 17.0 0.13 0.29 0.14 96 1006.7
20260904020337 57 215 6.0 17.0 0.13 0.29 0.13 96 1006.7
20260904020136 57 175 8.0 17.0 0.13 0.29 0.13 96 1006.6
20260904015820 57 144 4.0 17.0 0.13 0.29 0.13 95 1006.6
20260904015629 57 214 9.0 17.0 0.06 0.29 0.11 95 1006.9
20260904015306 57 177 8.0 17.0 0.06 0.29 0.08 95 1006.8
20260904015122 57 184 16.0 17.0 0.06 0.29 0.06 95 1006.9
20260904014746 57 194 8.0 11.0 0.03 0.29 0.06 94 1006.9
20260904014615 57 194 7.0 11.0 0.03 0.29 0.05 94 1006.9
20260904014108 58 180 9.0 9.0 0.03 0.29 0.04 94 1006.9
20260904013713 58 205 9.0 14.0 0.02 0.29 0.03 94 1006.8
20260904013601 58 205 6.0 14.0 0.02 0.29 0.03 93 1006.8
20260904013155 58 205 9.0 14.0 0.02 0.29 0.03 93 1006.8
20260904013054 58 205 6.0 14.0 0.02 0.29 0.03 93 1006.8
20260904012638 58 175 7.0 14.0 0.01 0.29 0.02 93 1006.8
20260904012547 58 225 3.0 14.0 0.01 0.29 0.02 92 1006.8
20260904012122 58 162 9.0 14.0 0.01 0.29 0.02 92 1006.7
20260904012040 58 162 10.0 14.0 0.01 0.29 0.02 92 1006.7
20260904011604 59 229 6.0 12.0 0.00 0.29 0.01 91 1006.7
20260904011533 59 229 6.0 12.0 0.00 0.29 0.01 91 1006.8
20260904011048 59 207 5.0 12.0 0.00 0.29 0.00 91 1006.7
20260904011026 59 207 7.0 12.0 0.00 0.29 0.00 91 1006.7
20260904010518 59 246 9.0 12.0 0.00 0.29 0.00 91 1006.7
20260904010012 59 166 10.0 16.0 0.00 0.29 0.00 92 1006.7
20260904005457 59 221 7.0 16.0 0.00 0.29 0.00 92 1006.8
20260904004958 58 187 9.0 16.0 0.00 0.29 0.00 92 1006.8
20260904004939 58 239 9.0 16.0 0.00 0.29 0.00 92 1006.8
20260904004450 58 191 14.0 16.0 0.01 0.29 0.00 92 1006.9
20260904004422 58 229 7.0 15.0 0.01 0.29 0.00 92 1006.9
20260904003943 59 203 7.0 15.0 0.01 0.29 0.00 93 1006.8
20260904003905 59 203 10.0 15.0 0.01 0.29 0.00 93 1006.9
20260904003436 59 190 8.0 16.0 0.01 0.29 0.00 93 1006.9
20260904003348 59 271 3.0 16.0 0.01 0.29 0.00 93 1006.9
20260904002929 59 147 6.0 16.0 0.01 0.29 0.00 93 1006.9
20260904002831 59 147 8.0 16.0 0.01 0.29 0.00 93 1006.9
20260904002423 58 226 6.0 16.0 0.01 0.29 0.00 93 1006.8
20260904002314 58 226 7.0 16.0 0.01 0.29 0.00 93 1006.8
20260904001916 58 204 4.0 16.0 0.01 0.29 0.00 93 1006.8
20260904001757 58 210 10.0 16.0 0.01 0.29 0.00 93 1006.8
20260904001408 58 214 7.0 11.0 0.01 0.29 0.00 93 1006.9
20260904001240 58 186 10.0 11.0 0.01 0.29 0.00 93 1006.9
20260904000902 58 176 9.0 11.0 0.01 0.29 0.00 93 1006.9
20260904000724 58 184 7.0 11.0 0.01 0.29 0.00 93 1006.8
20260904000355 58 201 6.0 11.0 0.01 0.29 0.00 93 1006.9
20260904000206 58 170 8.0 11.0 0.01 0.29 0.29 93 1006.9
20260903235847 58 194 7.0 10.0 0.01 0.29 0.29 92 1006.9
20260903235650 58 190 10.0 17.0 0.01 0.29 0.29 92 1006.9
20260903235132 58 222 11.0 17.0 0.01 0.29 0.29 91 1007.0
20260903234833 59 182 8.0 17.0 0.01 0.29 0.29 90 1007.0
20260903234615 59 205 10.0 17.0 0.00 0.29 0.29 90 1007.0
20260903234059 59 191 12.0 17.0 0.00 0.28 0.28 89 1007.1
20260903233820 59 217 8.0 16.0 0.00 0.28 0.28 89 1007.1
20260903233313 59 173 8.0 16.0 0.00 0.28 0.28 89 1007.1
20260903233024 59 193 10.0 15.0 0.00 0.28 0.28 89 1007.1
20260903232806 59 215 10.0 15.0 0.00 0.28 0.28 89 1007.1
20260903232507 59 215 11.0 15.0 0.00 0.28 0.28 88 1007.2
20260903232258 59 187 10.0 21.0 0.00 0.28 0.28 88 1007.1
20260903231950 60 205 7.0 21.0 0.00 0.28 0.28 88 1007.2
20260903231751 60 175 11.0 21.0 0.00 0.28 0.28 88 1007.3
20260903231433 60 194 11.0 21.0 0.00 0.28 0.28 88 1007.2
20260903231244 60 229 12.0 21.0 0.00 0.28 0.28 88 1007.2
20260903230916 60 176 5.0 21.0 0.00 0.28 0.28 88 1007.1
20260903230400 61 240 8.0 17.0 0.00 0.28 0.28 88 1007.3
20260903225842 61 194 10.0 17.0 0.00 0.28 0.28 88 1007.1
20260903225723 61 193 11.0 17.0 0.00 0.28 0.28 88 1007.0
20260903225325 61 205 7.0 17.0 0.00 0.28 0.28 89 1007.1
20260903225216 61 197 9.0 17.0 0.00 0.28 0.28 89 1007.1
20260903224808 61 201 11.0 17.0 0.00 0.28 0.28 89 1007.1
20260903224709 61 201 11.0 17.0 0.00 0.28 0.28 89 1007.1
20260903224252 61 215 10.0 17.0 0.00 0.28 0.28 89 1007.1
20260903224202 61 215 10.0 17.0 0.00 0.28 0.28 89 1007.2
20260903223734 61 210 14.0 15.0 0.00 0.28 0.28 90 1007.1
20260903223655 61 210 11.0 17.0 0.00 0.28 0.28 90 1007.1
20260903223217 61 207 10.0 17.0 0.00 0.28 0.28 91 1007.2
20260903223148 61 207 11.0 17.0 0.00 0.28 0.28 91 1007.2
20260903222700 60 204 8.0 17.0 0.00 0.28 0.28 91 1007.2
20260903222642 60 204 9.0 17.0 0.00 0.28 0.28 91 1007.2
20260903221626 60 197 10.0 16.0 0.00 0.28 0.28 91 1007.2
20260903221120 60 222 7.0 16.0 0.00 0.28 0.28 90 1007.2
20260903221109 60 222 8.0 16.0 0.00 0.28 0.28 90 1007.2
20260903220613 60 169 9.0 17.0 0.00 0.30 0.28 90 1007.2
20260903220552 60 169 10.0 17.0 0.00 0.30 0.28 90 1007.2
20260903220107 60 204 11.0 17.0 0.00 0.30 0.28 90 1007.1
20260903220035 60 204 15.0 17.0 0.00 0.30 0.28 90 1007.2
20260903215559 60 235 8.0 17.0 0.00 0.30 0.28 90 1007.2
20260903215518 61 235 8.0 17.0 0.00 0.30 0.28 90 1007.2
20260903215052 61 212 13.0 17.0 0.00 0.30 0.28 90 1007.2
20260903215002 61 212 14.0 17.0 0.00 0.30 0.28 89 1007.2
20260903214545 61 218 10.0 15.0 0.00 0.30 0.28 89 1007.3
20260903214038 61 208 12.0 15.0 0.00 0.30 0.28 89 1007.4
20260903213927 61 207 7.0 15.0 0.00 0.30 0.28 89 1007.3
20260903213531 61 200 11.0 15.0 0.00 0.30 0.28 89 1007.4
20260903213410 61 200 13.0 15.0 0.00 0.30 0.28 89 1007.4
20260903213024 61 191 10.0 13.0 0.00 0.30 0.28 89 1007.3
20260903212853 61 191 10.0 20.0 0.00 0.30 0.28 89 1007.4
20260903212517 61 233 6.0 20.0 0.00 0.30 0.28 89 1007.5
20260903212010 62 186 9.0 20.0 0.00 0.30 0.28 89 1007.5
20260903211819 62 156 10.0 20.0 0.00 0.30 0.28 90 1007.4
20260903211503 61 166 7.0 20.0 0.00 0.30 0.28 90 1007.4
20260903211302 61 154 12.0 20.0 0.00 0.30 0.28 89 1007.5
20260903210745 62 170 12.0 19.0 0.00 0.33 0.28 90 1007.5
20260903210449 62 170 9.0 19.0 0.00 0.33 0.28 91 1007.6
20260903210228 62 214 13.0 19.0 0.00 0.33 0.28 91 1007.6
20260903205711 62 256 11.0 13.0 0.00 0.33 0.28 92 1007.3
20260903205435 62 184 10.0 18.0 0.00 0.33 0.28 93 1007.4
20260903204928 62 168 11.0 18.0 0.00 0.33 0.28 94 1007.5
20260903204637 61 172 9.0 18.0 0.00 0.33 0.28 94 1007.5
20260903204422 61 172 10.0 18.0 0.00 0.33 0.28 94 1007.6
20260903204120 60 170 10.0 18.0 0.00 0.33 0.28 94 1007.5
20260903203914 60 183 9.0 18.0 0.00 0.33 0.28 94 1007.5
20260903203603 60 173 11.0 16.0 0.00 0.33 0.28 93 1007.5
20260903203407 60 173 13.0 16.0 0.00 0.33 0.28 93 1007.6
20260903203046 61 212 9.0 15.0 0.00 0.33 0.28 94 1007.6
20260903202900 61 201 11.0 15.0 0.00 0.33 0.28 94 1007.5
20260903202529 61 189 12.0 15.0 0.00 0.33 0.28 95 1007.5
20260903202012 60 219 10.0 15.0 0.00 0.33 0.28 95 1007.6
20260903201457 60 140 7.0 12.0 0.00 0.33 0.28 96 1007.6
20260903200939 59 217 9.0 12.0 0.00 0.33 0.28 97 1007.7
20260903200832 59 166 7.0 12.0 0.00 0.33 0.28 97 1007.8
20260903200421 58 184 7.0 11.0 0.00 0.42 0.28 97 1007.8
20260903195904 58 158 8.0 9.0 0.00 0.42 0.28 98 1007.8
20260903195818 57 158 8.0 9.0 0.00 0.42 0.28 98 1007.9
20260903195347 57 168 8.0 8.0 0.00 0.42 0.28 98 1007.9
20260903195311 57 173 6.0 7.0 0.00 0.42 0.28 98 1007.9
20260903194831 57 177 5.0 15.0 0.00 0.42 0.28 98 1007.9
20260903194313 57 170 8.0 15.0 0.00 0.42 0.28 99 1007.9
20260903194257 57 170 6.0 15.0 0.00 0.42 0.28 99 1007.9
20260903193750 57 184 10.0 15.0 0.00 0.42 0.28 99 1007.9
20260903192736 57 180 6.0 13.0 0.00 0.42 0.28 99 1008.0
20260903192722 57 180 9.0 13.0 0.00 0.42 0.28 99 1008.0
20260903192205 57 141 7.0 13.0 0.00 0.42 0.28 99 1008.0
20260903191722 57 175 7.0 13.0 0.00 0.42 0.28 99 1008.1
20260903191648 57 175 6.0 13.0 0.00 0.42 0.28 99 1008.1
20260903191215 57 172 7.0 13.0 0.00 0.42 0.28 99 1008.1
20260903191131 57 163 12.0 13.0 0.00 0.42 0.28 99 1008.1
20260903190708 57 141 7.0 15.0 0.00 0.53 0.28 100 1008.0
20260903190614 57 141 7.0 15.0 0.00 0.53 0.28 100 1008.1
20260903190201 57 208 7.0 15.0 0.00 0.53 0.28 100 1008.1
20260903190057 57 208 8.0 15.0 0.00 0.53 0.28 100 1008.2
20260903185654 56 135 8.0 15.0 0.01 0.53 0.28 100 1008.2
20260903185147 56 113 11.0 15.0 0.01 0.53 0.28 100 1008.2
20260903185023 56 113 7.0 15.0 0.01 0.53 0.28 100 1008.2
20260903184133 56 189 10.0 14.0 0.01 0.53 0.28 100 1008.3
20260903183949 57 212 9.0 14.0 0.01 0.53 0.28 100 1008.3
20260903183626 57 186 10.0 12.0 0.01 0.53 0.28 100 1008.4
20260903183432 57 186 10.0 12.0 0.01 0.53 0.28 100 1008.3
20260903183119 57 154 8.0 11.0 0.01 0.53 0.28 100 1008.3
20260903182915 57 225 6.0 13.0 0.01 0.53 0.28 100 1008.3
20260903182612 57 182 6.0 13.0 0.02 0.53 0.28 100 1008.3
20260903182358 56 226 5.0 13.0 0.02 0.53 0.28 100 1008.2
20260903182105 56 176 8.0 13.0 0.02 0.53 0.28 100 1008.2